Weather History for Sable Island, NS

Change the Weather History Date:

Friday, October 12, 2012

  Actual Average Record
Temperature  
Mean Temperature 57 °F -  
Max Temperature 62 °F 56 °F 66 °F (2003)
Min Temperature 52 °F 48 °F 42 °F (2002)
Degree Days  
Heating Degree Days 8    
Growing Degree Days 7 (Base 50)    
Moisture  
Dew Point 47 °F    
Average Humidity 70    
Maximum Humidity 94    
Minimum Humidity 40    
Precipitation  
Precipitation 0.02 in - - ()
Sea Level Pressure  
Sea Level Pressure 29.95 in    
Wind  
Wind Speed 16 mph ()    
Max Wind Speed 26 mph    
Max Gust Speed 31 mph    
Visibility 7.6 miles    
Events Rain    
Averages and records for this station are not official NWS values.
T = Trace of Precipitation, MM = Missing Value Source: Averaged Metar Reports

Daily Weather History Graph

Daily Weather History Graph

Search for Another Location

Airport:

Trip Planner

Search our weather history database for the weather conditions in past years. The results will help you decide how hot, cold, wet, or windy it might be!

Date:

Astronomy

Oct. 12, 2012 Rise Set
Actual Time 7:11 AM ADT 6:20 PM ADT
Civil Twilight 6:42 AM ADT 6:49 PM ADT
Nautical Twilight 6:08 AM ADT 7:22 PM ADT
Astronomical Twilight 5:35 AM ADT 7:56 PM ADT
Moon 3:43 AM ADT (10/12) 4:32 PM ADT (10/12)
Length of Visible Light 12h 07m
Length of Day
11h 09m
Waning Crescent, 11% of the Moon is Illuminated
Oct 12
Waning Crescent
Oct 15
New
Oct 22
First Quarter
Oct 29
Full
Nov 6
Last Quarter

Hourly Weather History & Observations

Time (ADT) Temp. Dew Point Humidity Pressure Visibility Wind Dir Wind Speed Gust Speed Precip Events Conditions
12:00 AM 54 °F 37 °F 40% 30.08 in 9 mi West 20.7 mph - -  
12:00 AM 53.6 °F 37.4 °F 54% 30.08 in 9.0 mi West 23.0 mph 28.8 mph N/A   Partly Cloudy
1:00 AM 53.6 °F 37.4 °F 54% 30.08 in 9.0 mi West 20.7 mph - N/A   Mostly Cloudy
2:00 AM 53.6 °F 37.4 °F 54% 30.10 in 9.0 mi WNW 16.1 mph 23.0 mph N/A   Partly Cloudy
3:00 AM 52 °F 36 °F 43% 30.11 in 9 mi WNW 16.1 mph - -  
3:00 AM 51.8 °F 35.6 °F 54% 30.11 in 9.0 mi West 16.1 mph 23.0 mph N/A   Partly Cloudy
4:00 AM 51.8 °F 35.6 °F 54% 30.10 in 9.0 mi West 12.7 mph 21.9 mph N/A   Partly Cloudy
5:00 AM 53.6 °F 37.4 °F 54% 30.12 in 9.0 mi West 10.4 mph - N/A   Mostly Cloudy
6:00 AM 53 °F 37 °F 43% 30.12 in 9 mi West 13.8 mph - -  
6:00 AM 53.6 °F 37.4 °F 54% 30.12 in 9.0 mi West 15.0 mph - N/A   Mostly Cloudy
7:00 AM 53.6 °F 35.6 °F 51% 30.13 in 9.0 mi West 10.4 mph 17.3 mph N/A   Scattered Clouds
8:00 AM 53.6 °F 37.4 °F 54% 30.12 in 9.0 mi WSW 9.2 mph - N/A   Mostly Cloudy
9:00 AM 56 °F 39 °F 41% 30.12 in 9 mi WSW 12.7 mph - -  
9:00 AM 55.4 °F 39.2 °F 54% 30.12 in 9.0 mi WSW 12.7 mph - N/A   Partly Cloudy
10:00 AM 57.2 °F 39.2 °F 51% 30.11 in 9.0 mi WSW 11.5 mph - N/A   Clear
11:00 AM 59.0 °F 41.0 °F 51% 30.10 in 9.0 mi SW 13.8 mph - N/A   Clear
12:00 PM 60 °F 44 °F 44% 30.07 in 9 mi SW 15.0 mph - -  
12:00 PM 59.0 °F 44.6 °F 59% 30.07 in 9.0 mi SW 15.0 mph - N/A   Scattered Clouds
1:00 PM 60.8 °F 46.4 °F 59% 30.03 in 9.0 mi SSW 16.1 mph - N/A   Overcast
2:00 PM 60.8 °F 48.2 °F 63% 30.01 in 9.0 mi SSW 17.3 mph - N/A   Overcast
3:00 PM 62 °F 49 °F 52% 29.98 in 9 mi SSW 21.9 mph - -  
3:00 PM 62.6 °F 48.2 °F 59% 29.98 in 9.0 mi SSW 23.0 mph - N/A   Mostly Cloudy
4:00 PM 60.8 °F 50.0 °F 68% 29.96 in 9.0 mi SSW 19.6 mph 25.3 mph N/A   Overcast
4:35 PM 60.8 °F 51.8 °F 72% 29.94 in 8.0 mi SW 17.3 mph - N/A Rain Light Rain
4:58 PM 59.0 °F 53.6 °F 82% 29.92 in 2.5 mi SSW 15.0 mph - N/A   Overcast
4:59 PM 59.0 °F 53.6 °F 82% 29.92 in 9.0 mi SSW 16.1 mph - N/A   Overcast
5:00 PM 59.0 °F 53.6 °F 82% 29.93 in 9.0 mi SSW 15.0 mph - N/A   Overcast
6:00 PM 60 °F 54 °F 76% 29.89 in 9 mi SSW 21.9 mph - -   Overcast
6:00 PM 59.0 °F 53.6 °F 82% 29.89 in 9.0 mi SSW 20.7 mph 29.9 mph N/A   Overcast
7:00 PM 60.8 °F 55.4 °F 82% 29.86 in 9.0 mi SSW 15.0 mph - N/A   Scattered Clouds
7:58 PM 59.0 °F 55.4 °F 88% 29.84 in 8.0 mi West 15.0 mph 21.9 mph N/A   Overcast
8:32 PM 59.0 °F 53.6 °F 82% 29.83 in 9.0 mi West 12.7 mph 18.4 mph N/A Rain Light Rain
8:37 PM 59.0 °F 55.4 °F 88% 29.83 in 7.0 mi West 19.6 mph - N/A Rain Light Rain
8:49 PM 57.2 °F 53.6 °F 88% 29.84 in 2.2 mi West 21.9 mph 27.6 mph N/A Rain Rain
8:50 PM 57.2 °F 53.6 °F 88% 29.83 in 2.0 mi West 21.9 mph - N/A Rain Rain
8:53 PM 57.2 °F 53.6 °F 88% 29.84 in 1.2 mi West 19.6 mph 25.3 mph N/A Rain Rain
9:00 PM 57.2 °F 53.6 °F 88% 29.84 in 1.1 mi West 19.6 mph - N/A Rain Rain
9:03 PM 57.2 °F 55.4 °F 94% 29.83 in 1.4 mi West 15.0 mph 21.9 mph N/A Rain Rain
9:06 PM 57.2 °F 53.6 °F 88% 29.83 in 3.0 mi West 17.3 mph - N/A Rain Rain
9:32 PM 57.2 °F 53.6 °F 88% 29.82 in 5.0 mi West 16.1 mph 21.9 mph N/A Rain Light Rain
9:48 PM 57.2 °F 51.8 °F 82% 29.82 in 4.0 mi West 16.1 mph 24.2 mph N/A Rain Light Rain
9:49 PM 57.2 °F 51.8 °F 82% 29.82 in 4.0 mi West 16.1 mph 24.2 mph N/A Rain Light Rain
10:00 PM 57.2 °F 53.6 °F 88% 29.82 in 5.0 mi WSW 11.5 mph 18.4 mph N/A Rain Light Rain
10:19 PM 57.2 °F 51.8 °F 82% 29.80 in 9.0 mi WSW 15.0 mph - N/A   Overcast
10:39 PM 57.2 °F 53.6 °F 88% 29.80 in 7.0 mi WSW 17.3 mph - N/A Rain Light Rain
10:52 PM 57.2 °F 51.8 °F 82% 29.80 in 9.0 mi West 17.3 mph 23.0 mph N/A   Overcast
10:56 PM 57.2 °F 51.8 °F 82% 29.80 in 9.0 mi WNW 23.0 mph - N/A   Overcast
11:00 PM 57.2 °F 51.8 °F 82% 29.80 in 9.0 mi NW 25.3 mph 31.1 mph N/A   Overcast
11:19 PM 55.4 °F 51.8 °F 88% 29.80 in 9.0 mi NW 26.5 mph - N/A   Overcast
11:44 PM 53.6 °F 48.2 °F 82% 29.81 in 9.0 mi NW 25.3 mph 31.1 mph N/A   Overcast
11:48 PM 53.6 °F 50.0 °F 88% 29.81 in 9.0 mi NW 24.2 mph 31.1 mph N/A   Overcast